This demonstration page uses our WeatherBlox Daily Observations layout. Learn more.

Left ArrowRight Arrow

Hourly Observations for August 7, 2021

Temp ( °F °C ) Dew Point ( °F °C ) Humidity (%) Winds ( mph kmh ) Pressure ( in mb ) Visibility ( mi km ) Precip ( " mm )
12:59 am 00:59 Mostly Cloudy 74 23.3 69 20.6 85 85 S 3 6 30.14 1021 9 14 0.00 0.00
1:59 am 01:59 Mostly Cloudy 74 23.3 69 20.6 85 85 SE 5 7 30.12 1020 9 14 0.00 0.00
2:59 am 02:59 Mostly Cloudy 74 23.3 70 21.1 88 88 SE 5 7 30.10 1019 10 16 0.00 0.00
3:59 am 03:59 Mostly Cloudy 75 23.9 70 21.1 84 84 SSE 3 6 30.09 1019 9 14 0.00 0.00
4:59 am 04:59 Mostly Cloudy 75 23.9 71 21.7 88 88 Calm 30.09 1019 9 14 0.00 0.00
5:46 am 05:46 Cloudy 75 23.9 71 21.7 88 88 Calm 30.10 1019 8 13 0.00 0.00
5:59 am 05:59 Cloudy with Mist and Fog 75 23.9 71 21.7 88 88 Calm 30.09 1019 4 6 0.00 0.00
6:59 am 06:59 Cloudy 75 23.9 72 22.2 90 90 Calm 30.09 1019 7 11 0.00 0.00
7:23 am 07:23 Cloudy with Drizzle 75 23.9 72 22.2 90 90 Calm 30.09 1019 2 3 0.05 1.27
7:25 am 07:25 Cloudy with Thunderstorms 75 23.9 72 22.2 90 90 Calm 30.09 1019 1 2 0.08 2.03
7:33 am 07:33 Cloudy with Strong Thunderstorms 75 23.9 73 22.8 94 94 Calm 30.09 1019 1 1 0.18 4.57
7:44 am 07:44 Cloudy with Thunderstorms 75 23.9 72 22.2 90 90 E 3 6 30.08 1019 1 2 0.26 6.60
7:52 am 07:52 Cloudy with Thunderstorms 75 23.9 72 22.2 90 90 ESE 5 7 30.08 1019 1 2 0.29 7.37
7:59 am 07:59 Cloudy with Thunderstorms 76 24.4 73 22.8 91 91 SSE 5 7 30.08 1019 3 4 0.29 7.37
8:14 am 08:14 Cloudy 77 25 74 23.3 90 90 SSE 5 7 30.08 1019 9 14 0.00 0.00
8:59 am 08:59 Mostly Cloudy 78 25.6 74 23.3 87 87 S 5 7 30.08 1019 7 11 0.00 0.00
9:59 am 09:59 Cloudy 78 25.6 74 23.3 87 87 S 6 9 30.07 1018 7 11 0.00 0.00
10:59 am 10:59 Cloudy 80 26.7 74 23.3 82 82 SW 8 13 30.08 1019 7 11 0.00 0.00
11:35 am 11:35 Cloudy with Thunderstorms 79 26.1 74 23.3 85 85 SW 3 6 30.07 1018 3 5 0.02 0.51
11:41 am 11:41 Cloudy with Thunderstorms 78 25.6 74 23.3 87 87 SW 7 11 30.07 1018 2 2 0.08 2.03
11:43 am 11:43 Cloudy with Thunderstorms 78 25.6 74 23.3 87 87 SW 6 9 30.06 1018 1 1 0.17 4.32
11:50 am 11:50 Cloudy with Strong Thunderstorms 77 25 74 23.3 90 90 S 10 17 30.07 1018 1 1 0.27 6.86
11:59 am 11:59 Cloudy with Thunderstorms 75 23.9 72 22.2 90 90 S 8 13 30.06 1018 1 2 0.34 8.64
12:03 pm 12:03 Cloudy with Thunderstorms 75 23.9 72 22.2 90 90 S 8 13 30.07 1018 2 3 0.01 0.25
12:06 pm 12:06 Cloudy with Thunderstorms 75 23.9 72 22.2 90 90 SSW 10 17 30.07 1018 2 3 0.02 0.51
12:22 pm 12:22 Cloudy with Light Rain 75 23.9 71 21.7 88 88 S 8 13 30.06 1018 3 5 0.06 1.52
12:59 pm 12:59 Cloudy with Light Rain 77 25 72 22.2 85 85 S 7 11 30.05 1018 10 16 0.06 1.52
1:59 pm 13:59 Cloudy 80 26.7 73 22.8 79 79 S 9 15 30.04 1017 10 16 0.00 0.00
2:59 pm 14:59 Cloudy 80 26.7 73 22.8 79 79 ESE 13 20 30.01 1016 10 16 0.00 0.00
3:59 pm 15:59 Cloudy with Light Rain 76 24.4 72 22.2 88 88 SSE 8 13 30.01 1016 3 5 0.02 0.51
4:05 pm 16:05 Cloudy with Rain 76 24.4 72 22.2 88 88 SSE 8 13 30.00 1016 3 4 0.03 0.76
4:24 pm 16:24 Cloudy with Light Rain 75 23.9 72 22.2 90 90 S 8 13 30.00 1016 3 5 0.07 1.78
4:59 pm 16:59 Cloudy with Light Rain 74 23.3 70 21.1 88 88 S 8 13 29.99 1016 8 13 0.13 3.30
5:59 pm 17:59 Cloudy 74 23.3 71 21.7 91 91 SW 9 15 30.00 1016 10 16 0.05 1.27
6:59 pm 18:59 Cloudy 74 23.3 70 21.1 88 88 WSW 9 15 29.99 1016 10 16 0.00 0.00
7:59 pm 19:59 Cloudy 74 23.3 70 21.1 88 88 W 12 19 30.00 1016 10 16 0.00 0.00
8:59 pm 20:59 Cloudy 74 23.3 70 21.1 88 88 W 8 13 30.01 1016 10 16 0.00 0.00
9:59 pm 21:59 Mostly Cloudy 73 22.8 68 20 84 84 WSW 6 9 30.01 1016 10 16 0.00 0.00
10:21 pm 22:21 Mostly Cloudy 74 23.3 69 20.6 85 85 W 5 7 30.02 1017 10 16 0.00 0.00
10:33 pm 22:33 Cloudy 74 23.3 69 20.6 85 85 WSW 5 7 30.02 1017 10 16 0.00 0.00
10:59 pm 22:59 Mostly Cloudy 73 22.8 69 20.6 87 87 WSW 5 7 30.03 1017 10 16 0.00 0.00
11:59 pm 23:59 Cloudy 74 23.3 68 20 82 82 NNW 8 13 30.04 1017 10 16 0.00 0.00

Powered by AerisWeather